Showing default

GGSE 5, 2834

Orbit data source: Space-Track

GGSE 5, 2834 is an American payload satellite in LEO that was launched on Wed, 31 May 1967 UTC via a THOR SLV-2 AGENA D launch vehicle from the Air Force Western Test Range (AFWTR). Payloads include a variety of satellites, spacecraft, and rockets equipped with specific instruments for various scientific and technological missions. These include communications satellites like Starlink; space stations such as the ISS; scientific satellites like the Hubble; Earth observation satellites from companies like Planet Labs, Umbra, and HawkEye 360; GPS; miniature CubeSats for education and research; and military/defense satellites.

Loading next visibility...
GGSE 5 details
Identifier
2834, 1967-053D
Orbit
LEO
Last TLE update13 hours ago
Origin
Flag of USNRO/NRL (US)
ManufacturerNRL
MissionDefense Technology
Bus & MotorNRL MULTI, Unknown motor
Mass105 kg wet, 105 kg dry
Launch date (UTC)
1967-05-31 (58 years ago)
Launch vehicle
THOR SLV-2 AGENA D
Launch site
Air Force Western Test Range (AFWTR)
Object type
Payload
Rocket body
Debris
Shape & HBREll + 2 Ant, 18 m
Radar Cross Section1.247 m², Medium (>0.1 m² and < 1m²)

Expand to show TLE details & history

TLE from 13 hours ago
0 GGSE 5
1  2834U 67053D   24356.03360984  .00000058  00000-0  81172-4 0  9997
2  2834  69.9713 215.9913 0008671 212.8550 147.2018 13.96083264930927
Epoch: 2024-12-21T00:48Z
Definitive object data (Epoch: 2024-12-21T00:48:23.89Z)
Latitude0.00005°
Longitude113.8012°
Altitude915.013 km
Speed7.392 km/s
True Right ascension14h 23m 57s
True Declination0° 00' 00"
Sunlit
Object was in daylight at TLE epoch
Visualization TLE readout
Latitude-50.45108°
Longitude-41.3231°
Altitude920.519 km
Speed7.394 km/s
Apparent Right ascension02h 29m 14s
Apparent Declination-47° 42' 59"
Sunlit
Object is in daylight
Visualization observer readout
Local Sidereal Time12:59:56
Azimuth236.667° WSW
Elevation-72.19°
Doppler factor1
Orbital elements
Apogee altitude911.751 km
Perigee altitude899.12 km
Semi-major axis7,283.573 km
Eccentricity0.0008671
Inclination69.9713°
RAAN215.9913°
Arg. of periapsis212.855°
True anomaly147.25557°
Mean anomaly147.2018°
Eccentric anomaly147.22869°
Mean motion3.49162 °/min
BSTAR0.000081172
Orbital period103.1 mins
Loading maneuver chart data...
Loading historical data...
Loading historical data...
Loading historical data...
Loading historical data...
Loading historical data...
Loading historical data...
Loading historical data...

GGSE 5 Visibility forecast

Observer location: undefined°, undefined

Span
Click to sort rows by Start time (UTC) header in descending order
Start Az.
Max El. time (UTC)
Max El. Az.
Max El.
End time (UTC)
End Az.
4 mins2024-12-21 14:42:53.797Z114.936° SE2024-12-21 14:44:53.797Z94.239° ESE12.382°2024-12-21 14:46:53.797Z74.293° E
10 mins2024-12-21 16:24:53.797Z204.991° SW2024-12-21 16:28:53.797Z220.363° SW44.334°2024-12-21 16:34:53.797Z23.737° NE
5 mins2024-12-21 18:13:53.797Z292.032° WNW2024-12-21 18:15:53.797Z314.336° NW15.04°2024-12-21 18:18:53.797Z345.977° N
10 mins2024-12-22 01:26:53.797Z348.108° N2024-12-22 01:30:53.797Z43.329° NE38.773°2024-12-22 01:36:53.797Z138.365° SSE
6 mins2024-12-22 03:13:53.797Z291.658° WNW2024-12-22 03:16:53.797Z253.053° W20.185°2024-12-22 03:19:53.797Z218.195° SW
|